Wind_Gust
24 30 30 21 19 19 21 22 22 22 21 21 21 20 22 22 22 23 23 22 23 23 23 23 21 21 23 22 20 19 18 19 18 16 16 17 19 19 19 20 21 21 21 21 22 23 23 23 23 22 21 20 20 19 18 18 17 16 15 22 23 21 20 20 18 18 18 19 21 21 21 21 24 25 26 25 25 24 20 20 16 25 24 22 18
29 30 29 29 19 19 23 23 24 24 22 22 22 22 22 22 22 22 22 22 22 23 22 21 20 22 22 21 21 19 18 18 17 17 17 16 17 20 20 20 20 20 21 23 23 23 23 24 23 22 20 20 20 19 19 18 17 16 15 19 19 20 19 19 19 18 18 19 20 22 23 27 27 25 26 26 26 25 22 21 18 22 25 19 21
28 27 28 29 21 23 23 24 25 25 23 24 26 24 23 23 22 22 22 21 21 20 20 20 19 20 21 21 20 19 18 19 19 18 18 17 17 19 20 20 20 21 23 23 23 24 24 23 23 22 21 20 20 19 18 17 17 15 16 17 17 18 18 18 18 19 18 18 20 23 27 28 27 24 26 26 25 24 23 22 22 20 25 18 18
28 28 28 28 23 19 21 24 24 26 23 24 24 23 23 22 22 22 21 20 19 19 19 19 18 17 17 19 19 19 20 20 19 19 18 17 18 20 19 20 21 22 23 23 24 24 23 22 22 22 20 20 20 19 18 18 17 15 15 16 16 16 16 16 16 16 13 13 16 15 20 27 27 24 25 25 23 21 19 20 22 22 20 20 20
28 29 30 30 29 22 22 24 22 26 24 23 23 24 24 22 21 21 20 19 19 19 18 18 19 18 17 18 19 20 20 20 19 18 17 18 18 20 20 22 23 23 23 23 23 22 23 23 22 21 20 20 19 19 19 18 17 15 15 15 16 15 15 15 14 13 10 6 5 10 22 25 26 25 24 24 23 18 15 15 17 18 19 21 22
27 29 28 28 29 29 21 22 25 27 26 26 24 24 25 23 22 21 20 19 19 18 19 20 20 19 20 20 20 20 20 19 19 16 14 15 16 20 21 23 23 22 23 22 22 22 22 22 21 20 19 19 19 20 19 17 16 15 14 15 15 15 15 14 13 10 7 6 11 18 21 20 22 25 20 20 22 18 17 18 19 18 19 20 21
27 28 28 28 27 27 20 22 26 27 27 26 26 25 25 24 22 21 21 20 19 19 20 20 20 19 21 20 20 20 20 19 18 16 14 15 17 18 23 22 23 23 22 23 22 22 22 21 21 19 18 18 18 15 16 16 16 15 14 14 14 14 14 14 11 7 5 10 18 17 19 19 21 23 19 18 17 18 19 20 19 18 18 19 19
28 27 27 29 26 24 19 23 27 27 27 27 26 26 25 24 22 21 21 20 18 19 20 20 20 20 21 20 20 21 21 20 19 17 14 17 20 18 19 23 22 22 22 22 21 21 21 20 20 19 18 17 15 14 14 14 15 14 14 14 13 13 13 12 11 7 10 17 14 16 18 23 23 21 17 18 16 16 17 19 19 18 18 17 15
28 27 27 28 28 24 21 22 24 27 27 27 27 26 25 24 23 22 20 19 18 19 20 20 20 20 20 18 20 20 20 21 20 16 13 17 17 17 17 18 20 20 19 17 18 19 19 19 18 18 17 16 15 13 13 13 14 14 14 14 12 12 12 9 9 8 10 16 16 17 17 19 18 20 15 16 16 18 14 15 18 19 19 19 19
27 26 25 26 31 21 21 22 23 26 26 26 26 26 26 24 22 22 21 19 18 18 19 19 19 19 17 17 18 18 19 20 20 17 16 16 15 15 14 14 18 20 20 20 19 18 17 16 17 17 16 14 12 10 10 11 12 13 14 13 13 12 11 9 6 4 16 16 18 17 20 13 21 20 21 18 17 15 18 22 20 18 14 18 18
25 26 25 26 31 20 21 22 23 24 25 25 25 26 25 24 23 22 21 21 18 18 18 17 17 17 16 18 21 19 19 19 19 20 18 17 15 12 13 16 16 16 18 18 18 18 16 16 15 14 12 10 10 9 9 11 12 14 14 13 12 11 9 10 11 19 20 20 19 19 17 13 19 19 14 14 15 17 16 17 17 16 16 17 17
26 25 24 25 24 18 20 22 22 22 25 25 25 25 24 24 22 22 21 19 18 16 15 17 16 17 19 20 22 20 19 18 18 20 20 18 16 14 16 15 15 17 17 18 18 18 16 15 13 11 10 9 9 9 9 11 13 15 15 13 12 10 8 10 15 17 17 20 19 17 20 22 21 22 17 16 16 15 14 18 17 16 17 17 18
25 26 25 27 28 18 19 20 21 22 24 24 24 24 23 22 22 20 18 15 14 14 15 17 16 17 21 21 21 19 17 18 18 20 21 19 17 15 14 15 16 17 17 18 18 18 16 14 13 11 9 9 9 10 11 13 15 16 14 13 11 9 6 13 18 18 18 18 19 20 21 20 21 15 16 16 17 16 15 15 16 16 17 17 17
25 26 27 29 26 21 18 19 20 21 22 22 22 21 21 21 19 18 16 14 12 13 13 14 14 18 21 22 22 17 18 17 19 20 21 19 18 17 15 16 16 17 17 17 16 16 15 13 12 11 9 9 10 12 13 15 17 16 14 13 11 9 8 4 11 17 18 18 17 21 19 19 22 15 16 17 17 17 17 16 16 16 17 17 17
27 24 27 27 28 26 21 17 18 20 19 19 19 19 19 18 18 16 15 13 14 13 13 16 17 13 18 18 17 18 18 19 20 20 20 18 18 17 15 16 16 16 16 16 16 16 14 12 11 10 10 9 9 10 14 15 16 15 14 12 12 10 14 17 16 18 20 19 18 20 22 22 11 13 16 17 17 17 16 17 15 15 15 16 18
25 26 26 26 27 26 26 22 18 18 18 18 18 19 18 18 17 16 15 14 14 14 15 15 15 14 13 16 16 18 19 19 17 17 17 18 18 18 17 16 16 16 16 17 17 16 14 12 10 10 10 10 10 12 13 15 14 14 12 11 10 7 11 8 15 16 16 18 19 19 21 22 13 15 16 16 16 17 17 17 17 16 17 17 16
23 24 26 26 26 26 26 26 23 21 18 17 17 18 18 17 17 16 14 15 15 15 17 16 15 15 14 14 14 14 15 16 16 15 17 18 17 18 18 16 16 17 17 16 16 14 13 12 11 11 11 10 10 12 13 13 13 13 11 10 8 5 8 11 17 14 16 16 18 19 20 22 16 14 17 17 17 17 16 16 16 15 15 15 15
23 24 26 27 27 26 27 26 27 25 25 21 18 17 18 18 16 15 14 14 14 16 15 15 15 14 15 15 15 15 15 14 14 14 16 16 15 16 17 17 16 16 16 16 15 14 12 12 11 11 13 11 11 11 12 12 12 12 11 9 8 6 7 6 16 17 17 12 19 20 20 12 11 14 15 16 16 16 16 15 15 16 15 14 15
24 24 26 27 27 26 27 26 24 25 24 22 22 24 16 16 15 15 14 14 14 16 16 15 15 14 15 15 16 16 15 15 14 14 15 17 17 17 17 17 16 15 15 15 14 14 11 10 11 11 11 12 10 10 11 12 11 11 11 10 9 6 8 11 17 18 16 15 18 21 20 8 13 14 16 16 16 17 16 15 15 15 15 14 15
23 23 24 25 26 26 25 26 25 23 22 22 22 22 19 17 16 15 15 15 16 16 14 15 17 16 17 17 16 20 17 19 15 18 16 16 15 16 17 17 16 15 14 14 14 13 11 10 10 9 10 11 11 10 12 12 12 11 11 11 10 13 14 16 15 17 18 18 18 20 14 11 11 15 16 16 16 16 15 15 15 14 13 14 14
23 24 23 25 25 25 24 25 23 22 21 22 21 21 23 21 19 17 16 16 16 16 15 16 16 17 17 14 13 18 18 20 19 20 16 18 15 17 17 17 16 14 14 14 12 11 11 8 8 8 9 10 10 10 10 12 12 11 11 11 14 15 17 14 15 15 16 18 18 21 10 11 14 14 15 15 14 15 14 13 14 15 15 14 13
23 24 24 25 26 24 23 22 24 22 22 22 21 21 23 19 21 22 21 20 17 17 20 21 16 20 15 20 18 18 18 17 18 15 18 20 19 16 16 16 15 15 14 13 13 11 10 9 8 8 8 8 10 15 14 11 12 11 11 12 19 15 13 13 14 17 17 18 18 17 12 13 14 14 14 14 15 14 15 14 14 14 14 14 14
24 24 25 24 24 24 23 22 21 23 22 20 20 21 21 20 21 21 20 15 20 21 20 20 21 21 20 21 18 15 16 17 17 15 16 12 20 16 16 15 14 13 13 12 12 12 11 10 8 6 7 6 11 11 15 19 18 13 12 18 12 13 14 13 13 15 16 19 19 12 12 11 11 13 14 14 15 14 14 15 15 15 14 14 13
23 24 24 25 25 25 24 23 23 23 22 21 21 22 20 19 22 21 19 18 19 20 20 20 21 21 22 18 15 16 15 15 15 18 16 20 21 16 16 15 14 13 14 12 13 13 15 11 9 8 6 8 10 9 12 16 18 18 16 12 13 15 13 12 15 16 15 18 21 13 12 12 12 13 13 13 14 14 13 13 14 13 12 13 13
24 24 23 24 24 23 25 24 24 23 21 21 20 21 20 20 21 18 16 17 18 18 18 19 18 19 19 16 18 17 18 18 18 18 17 19 18 18 18 17 15 13 10 13 15 19 17 17 16 12 12 12 13 9 10 13 15 16 14 13 14 13 14 13 15 14 16 17 18 10 12 11 12 13 13 14 13 14 14 14 13 13 13 11 13
24 25 25 26 25 26 25 25 24 22 21 20 20 20 19 20 21 17 18 19 18 17 17 17 15 17 17 18 17 18 19 17 19 18 17 16 17 17 14 13 13 12 10 12 12 11 13 14 14 13 13 12 12 11 10 12 15 14 15 14 14 13 14 14 16 14 16 18 18 10 10 10 10 13 14 14 13 13 14 13 13 13 12 11 12
23 24 26 25 26 24 25 25 23 21 21 20 20 20 19 19 20 20 20 18 17 16 15 16 16 14 17 16 18 19 17 17 15 15 15 15 15 14 14 13 12 11 9 10 10 10 12 13 14 14 13 13 14 13 13 13 13 15 14 15 13 13 13 15 15 14 16 18 15 11 11 9 8 11 13 14 14 13 13 13 13 11 11 11 12
23 23 25 25 26 25 25 24 23 21 20 19 19 19 19 18 18 17 17 17 16 16 15 17 19 17 16 18 18 18 17 16 15 15 15 14 14 14 12 13 12 12 11 10 12 11 9 10 10 12 13 13 15 13 13 14 14 14 14 14 13 12 12 13 14 14 16 17 19 16 11 9 7 10 12 13 13 13 13 12 12 12 11 11 10
23 25 25 25 26 26 24 25 22 22 18 17 19 19 19 19 19 18 17 14 16 15 15 16 19 17 18 17 16 17 16 15 15 15 15 15 15 15 14 12 10 11 11 10 10 11 10 10 10 11 11 12 12 12 13 14 13 14 15 14 13 13 13 13 13 14 16 16 18 19 13 12 7 8 12 12 12 12 12 12 12 12 11 11 10
22 22 22 22 24 25 25 24 21 22 19 18 18 19 19 19 19 17 17 15 14 13 13 16 16 17 16 16 16 15 14 15 15 15 15 15 14 14 13 13 11 10 9 9 10 10 11 10 10 10 14 13 13 13 12 14 15 14 14 14 14 13 12 12 13 14 16 16 18 21 14 11 8 7 7 11 11 12 11 11 11 11 11 10 10
19 20 22 22 19 20 21 16 16 15 18 19 17 19 19 19 18 17 16 15 15 15 14 15 16 16 15 16 17 15 14 15 15 14 15 15 14 14 13 13 12 12 9 9 9 9 9 9 9 9 10 12 13 13 13 14 14 15 13 15 13 12 12 11 12 14 15 15 16 14 19 13 11 9 7 6 9 11 11 11 11 11 10 10 10
21 13 12 13 15 18 22 15 11 14 18 19 19 20 19 19 18 16 16 16 14 15 15 15 15 16 16 16 16 16 14 14 14 14 14 14 15 13 13 12 12 12 12 10 10 10 10 11 10 10 9 9 12 12 10 11 12 15 15 14 14 12 12 12 13 13 12 15 17 14 13 16 12 11 8 6 8 8 10 11 11 10 10 10 10
12 16 15 15 19 16 13 14 13 17 17 18 18 18 17 19 17 17 16 17 16 15 15 16 16 16 16 16 16 16 15 15 14 13 13 14 13 13 13 12 12 11 10 10 11 11 11 11 11 10 11 11 11 12 13 12 12 13 13 13 13 13 11 11 12 12 12 13 15 17 14 14 16 10 8 11 9 7 8 9 10 10 10 11 11
15 9 10 14 16 17 17 18 16 17 15 14 16 18 17 17 17 17 16 18 16 16 16 16 16 17 16 15 15 16 16 16 15 14 13 13 13 12 12 12 13 11 10 11 12 11 11 11 12 12 10 12 13 13 13 13 13 13 13 12 11 11 11 12 12 12 12 12 11 11 13 14 15 15 18 12 10 7 5 8 10 9 10 10 9
20 13 13 18 16 16 15 18 17 18 18 17 18 18 16 18 18 17 18 16 16 17 17 17 17 17 17 16 15 15 15 15 15 14 13 13 14 13 12 13 14 12 12 10 10 11 11 12 12 13 13 12 13 12 12 13 12 13 12 11 11 10 10 11 11 12 13 12 11 12 11 10 12 13 16 16 9 12 11 11 8 5 5 7 8
30 27 20 10 10 15 14 17 16 18 20 21 18 17 17 16 16 14 16 15 16 18 18 17 17 17 16 16 15 15 14 15 15 15 13 13 13 13 13 13 13 12 11 11 10 11 11 10 10 11 13 13 14 13 13 13 12 12 10 10 10 11 12 12 12 12 13 13 12 11 11 11 11 12 9 12 14 14 12 10 7 6 7 6 6
32 29 26 22 17 17 21 22 22 21 21 20 20 17 18 17 16 17 17 16 17 18 18 17 17 16 15 16 15 15 15 15 14 14 12 12 12 12 13 13 12 12 12 11 11 10 12 12 12 11 11 13 15 14 12 13 13 11 10 10 11 12 12 12 12 11 12 12 12 11 11 11 12 9 13 13 13 16 15 12 11 9 8 7 6
21 31 34 29 23 20 20 23 22 22 23 24 21 21 19 19 18 17 16 17 16 17 17 18 18 16 16 16 16 16 15 15 14 14 13 13 12 12 12 12 12 12 12 11 11 10 11 12 13 12 12 13 15 14 13 13 13 12 12 11 11 11 12 11 11 11 12 12 12 9 6 9 10 11 15 15 13 8 14 14 13 13 11 8 8
23 21 21 23 24 24 21 21 23 21 22 22 22 20 20 19 18 17 17 17 17 16 16 17 16 16 16 16 17 16 15 15 15 15 14 14 13 13 13 13 12 12 11 11 12 11 11 12 13 13 12 12 12 13 13 13 13 12 13 12 11 11 11 11 10 10 11 11 11 10 10 11 9 8 10 13 10 15 12 12 14 13 17 10 9
21 21 27 25 26 26 23 22 23 24 23 22 24 22 19 21 21 19 19 18 18 18 17 16 15 16 15 17 16 15 16 15 15 14 13 13 13 13 12 13 12 12 12 11 12 13 12 12 14 14 13 13 13 13 14 15 15 14 12 12 11 10 9 9 10 10 10 11 9 8 9 12 14 14 14 16 15 14 11 10 10 10 14 15 9
21 19 19 25 28 31 29 26 26 26 26 26 25 24 24 23 21 21 22 20 20 18 18 16 16 15 16 17 16 16 15 15 15 15 14 13 13 13 13 12 12 12 12 11 11 11 13 13 14 14 15 14 14 14 14 15 17 16 13 13 12 10 10 9 9 10 10 9 8 8 7 9 9 10 9 9 9 10 10 9 7 8 10 15 16
23 19 17 19 22 23 25 26 25 26 25 26 26 24 23 25 24 24 22 22 21 21 20 18 16 16 15 15 15 14 15 14 14 14 13 13 13 13 13 13 12 12 11 11 11 12 13 13 13 15 14 14 15 15 15 16 17 15 17 16 14 14 11 10 9 9 10 11 11 10 8 9 9 9 9 8 9 9 9 9 8 8 9 10 11
19 18 18 21 21 23 24 24 24 25 24 25 25 26 21 20 21 23 20 21 19 17 18 17 16 17 15 15 15 14 15 15 14 14 13 12 11 11 12 13 12 11 12 12 12 13 13 13 14 14 15 13 14 15 16 13 14 15 12 15 16 16 11 11 8 8 9 10 10 10 9 9 9 8 9 8 9 8 10 10 11 11 9 10 10
20 20 22 23 23 22 23 25 25 23 23 24 22 22 20 20 17 18 18 17 20 17 16 16 15 16 17 16 16 14 14 14 15 15 13 12 11 11 13 13 14 12 12 13 13 14 14 14 14 14 14 16 17 16 12 12 12 18 18 13 15 13 14 10 12 10 8 11 10 11 10 10 10 10 9 7 8 9 9 12 11 11 11 11 12
21 22 24 27 26 26 27 25 24 25 23 22 22 21 21 20 18 17 16 16 17 18 19 19 17 16 17 16 16 14 14 14 14 13 14 13 12 12 12 13 13 13 13 14 14 16 15 14 14 14 14 14 15 15 13 11 13 12 13 12 12 12 11 16 14 12 7 10 11 12 11 10 10 9 9 10 11 11 11 13 11 11 12 12 13
22 22 23 25 24 25 25 24 23 24 24 23 21 21 20 23 22 22 22 22 22 21 21 21 21 19 19 16 15 16 15 13 14 14 14 14 13 13 13 15 15 15 14 13 13 14 15 17 15 14 15 13 13 15 15 13 13 11 12 8 13 9 13 19 16 15 10 10 9 8 12 12 9 10 13 13 12 11 11 12 12 13 12 12 12
21 20 22 24 24 25 24 25 25 24 23 23 23 21 20 23 23 23 22 21 22 21 19 18 19 19 17 16 16 14 15 14 13 13 13 13 13 13 13 13 14 13 12 12 13 13 16 16 16 15 14 13 13 14 14 15 13 12 11 10 11 11 15 21 17 19 17 14 12 15 15 14 14 14 15 15 14 11 11 12 12 15 14 12 13
21 21 21 23 25 25 24 23 22 23 21 24 25 24 23 24 23 22 23 22 21 20 19 18 17 18 18 17 17 16 15 14 13 13 13 14 14 14 14 13 14 14 15 15 14 14 12 14 13 13 13 13 13 12 13 14 15 15 12 11 10 10 12 12 12 14 14 18 12 13 12 13 14 14 13 13 13 13 12 11 14 14 14 14 13
22 23 23 24 25 25 21 19 22 24 20 23 24 26 25 25 24 24 22 21 21 21 20 19 19 18 17 17 16 17 15 14 14 13 13 14 14 14 14 14 14 14 15 15 14 14 13 13 14 14 13 13 12 10 11 13 14 13 14 13 11 11 13 12 12 12 16 17 16 14 12 12 13 12 12 11 13 12 11 11 13 14 13 13 13
19 20 21 23 25 26 25 23 22 23 23 24 24 25 24 26 24 23 21 21 21 21 20 22 20 18 19 18 17 16 16 15 14 14 13 15 14 15 14 14 13 14 13 13 14 15 14 14 14 12 12 13 11 12 11 11 13 11 14 15 14 13 11 12 13 14 12 12 18 20 19 19 17 14 12 14 14 13 13 13 12 14 14 13 13
20 20 21 23 23 25 24 25 24 25 24 26 23 25 24 23 22 22 21 21 21 22 22 22 21 19 20 19 18 17 16 16 15 14 13 13 13 13 13 13 13 12 13 14 14 16 16 14 13 13 13 12 13 11 11 9 11 12 13 13 13 14 12 11 12 16 14 14 18 20 19 17 18 17 14 13 14 16 16 13 13 13 12 11 12
Wind_Speed
14 17 16 17 15 15 15 15 15 15 16 16 17 17 18 19 18 18 18 18 19 18 17 18 15 16 17 17 15 14 14 13 13 12 12 12 13 14 15 15 16 15 16 16 17 17 17 17 17 15 14 14 14 13 14 13 11 11 13 18 16 16 16 14 14 14 14 16 16 16 16 16 17 18 18 19 18 16 15 14 11 11 11 12 14
18 17 15 17 15 15 16 17 16 15 16 17 17 18 18 18 18 18 18 18 18 17 18 16 15 16 17 16 14 14 13 13 12 12 11 11 13 14 15 16 16 16 17 17 18 17 17 17 16 15 15 15 14 14 13 13 11 11 12 15 15 16 15 15 14 14 14 15 16 17 18 21 19 17 18 19 19 18 16 15 12 11 11 15 17
17 16 15 18 17 17 17 17 18 16 17 17 18 18 18 18 18 18 17 17 16 16 16 15 15 16 16 16 14 14 13 13 14 13 13 11 14 15 15 15 15 15 18 18 18 18 17 16 17 15 15 15 13 12 12 12 11 12 13 13 13 14 15 15 14 14 13 14 16 18 21 21 18 18 18 18 19 18 16 17 16 15 11 14 15
17 15 15 18 19 16 17 18 17 19 18 19 19 19 18 18 18 18 17 16 15 15 15 15 14 14 14 15 14 14 14 15 14 14 13 13 13 14 14 14 15 18 17 18 19 18 17 17 16 15 15 14 14 13 12 12 12 11 12 12 13 12 12 13 12 10 10 11 13 11 10 14 16 17 18 17 16 15 14 15 16 16 16 15 16
16 15 16 16 17 16 17 17 17 19 18 18 19 20 19 18 17 17 17 16 15 15 15 14 14 13 14 15 15 15 15 15 14 14 13 14 13 15 15 16 16 17 18 18 18 17 17 17 16 15 14 14 14 13 12 11 11 11 12 12 12 12 11 10 9 7 6 2 4 7 10 13 13 17 16 17 14 12 12 12 12 14 15 17 17
15 15 15 15 16 17 17 17 19 19 19 19 19 20 19 18 18 17 16 16 16 15 15 16 16 14 15 15 16 15 15 15 14 13 12 13 13 15 17 16 17 17 18 17 17 16 16 16 15 14 14 14 14 14 13 11 10 11 11 12 12 11 11 9 5 4 3 5 10 8 10 10 11 12 14 15 14 12 13 15 15 14 15 16 17
17 14 14 15 14 17 16 18 21 20 19 19 19 20 18 18 17 17 17 16 15 16 16 16 16 15 16 16 16 16 15 15 13 12 11 11 12 13 17 17 17 16 17 17 17 16 16 15 14 14 13 13 12 12 12 11 10 10 10 11 11 11 10 8 5 3 3 7 8 8 8 10 10 9 14 13 13 14 15 15 14 14 14 14 14
15 13 14 15 13 16 15 18 21 22 21 20 20 20 19 19 17 17 17 16 15 15 17 17 16 16 17 16 16 16 15 15 14 13 12 14 14 14 16 17 17 16 16 16 15 15 15 15 14 13 12 11 10 10 10 11 11 10 9 10 10 10 9 7 5 4 9 5 5 7 7 11 11 8 12 11 11 10 13 15 13 14 14 14 12
15 15 14 15 15 19 16 18 19 21 22 22 21 20 20 18 17 17 16 15 15 15 16 16 16 17 16 15 16 16 16 16 15 12 11 15 14 13 14 14 15 15 16 14 14 14 14 13 12 12 11 10 10 10 9 10 11 11 10 9 9 9 7 5 4 5 4 6 8 7 8 8 8 9 10 12 12 13 11 11 14 15 15 15 15
16 14 14 14 16 17 16 17 19 21 21 21 22 21 20 18 17 17 16 15 14 15 16 16 15 15 14 14 15 15 15 16 15 12 12 12 13 13 12 12 14 15 14 14 15 13 12 12 11 11 10 9 8 7 7 8 9 10 10 10 8 7 6 2 5 5 7 7 8 9 10 10 10 9 13 11 11 10 13 17 16 14 11 14 14
16 14 13 14 19 16 16 16 18 20 20 20 21 20 19 18 18 17 16 15 15 15 15 14 13 14 12 13 12 12 14 16 14 13 13 13 11 9 10 13 13 13 14 14 14 13 12 11 10 9 8 6 6 5 6 8 9 10 9 10 9 7 5 8 10 8 8 10 10 9 9 10 9 8 10 10 11 13 11 14 13 12 13 14 14
15 14 13 14 18 15 16 17 18 17 19 19 19 20 20 18 18 17 16 15 13 13 13 13 12 14 13 14 16 14 14 14 14 15 15 13 12 10 13 12 12 13 13 13 12 12 13 11 9 8 6 6 5 6 6 8 10 10 9 9 8 6 5 7 3 6 8 10 9 8 10 11 11 11 13 12 12 11 11 14 12 12 13 14 14
15 14 14 15 17 15 15 16 17 17 19 19 19 18 18 18 18 17 15 12 11 11 13 13 12 13 16 16 12 13 13 12 13 15 15 15 12 12 11 12 13 13 13 13 13 12 11 10 8 7 6 5 6 6 7 9 11 11 10 9 7 4 5 11 5 7 8 8 8 10 11 10 11 12 11 12 13 12 11 12 12 12 13 13 13
15 14 15 15 14 17 14 15 15 16 17 17 17 16 16 16 15 14 12 11 10 11 11 12 11 16 17 18 17 14 13 13 15 15 15 15 13 12 11 12 12 13 13 13 12 11 10 9 8 7 6 6 7 8 9 11 11 10 9 8 6 4 6 3 8 8 8 8 9 11 10 9 11 12 12 13 13 13 13 12 12 13 13 13 13
14 15 16 15 15 15 17 13 14 14 14 14 14 15 15 15 14 13 12 10 10 11 10 12 11 11 15 15 14 12 14 15 16 16 15 14 14 13 12 12 12 13 13 12 12 11 10 9 7 7 6 6 7 7 10 11 11 9 9 8 7 7 11 3 4 8 8 8 8 10 11 10 9 11 13 12 12 13 12 13 12 12 12 13 14
15 16 16 15 15 15 14 16 14 14 14 14 14 15 15 14 14 13 11 11 11 10 12 12 11 10 11 13 13 14 14 15 14 14 14 14 13 14 13 13 13 13 12 12 12 10 8 8 8 8 7 7 9 9 9 10 10 9 8 7 4 4 9 6 5 7 6 7 8 9 10 10 11 12 12 12 12 13 13 13 13 13 14 13 12
14 15 15 16 16 14 13 14 16 16 14 14 14 14 14 14 13 12 12 12 12 13 13 12 12 11 10 11 12 12 12 13 12 13 14 14 13 14 14 13 12 13 13 12 11 9 8 7 8 9 8 8 8 10 10 10 9 8 7 5 2 4 7 9 6 5 6 7 7 8 9 9 11 11 13 13 13 12 13 12 12 12 12 12 12
14 15 15 16 15 15 14 14 16 14 14 13 14 14 14 14 12 12 12 12 11 13 13 12 12 11 11 12 12 12 12 11 11 12 13 13 12 12 14 14 13 13 12 11 10 9 8 7 7 8 10 9 8 9 10 9 9 8 6 5 3 3 6 5 7 7 7 6 8 9 9 9 9 11 12 12 12 12 12 11 12 12 11 11 12
13 14 15 15 16 15 15 14 15 14 14 11 11 13 13 13 12 12 12 12 12 13 13 12 12 12 12 12 13 13 12 11 11 11 12 14 14 13 13 13 13 12 12 11 10 9 8 7 7 7 9 9 8 8 9 10 9 8 7 5 3 4 6 6 7 7 7 6 7 9 8 7 11 11 12 12 12 13 11 12 11 11 12 11 11
12 13 14 14 15 15 14 13 13 13 12 12 12 12 13 14 12 12 12 12 13 13 12 13 14 13 14 13 13 13 12 11 12 11 13 13 12 11 14 13 12 11 11 11 10 8 7 7 6 6 8 9 9 7 9 10 9 8 7 6 7 10 4 6 6 7 7 7 8 8 9 8 9 12 11 12 12 11 12 11 11 10 10 11 11
10 13 13 13 14 14 15 12 13 12 12 11 10 11 13 16 14 13 13 13 13 13 12 13 14 14 13 11 10 9 9 9 9 10 12 9 12 14 14 14 13 12 11 11 10 8 7 6 6 6 7 7 8 8 8 9 9 8 8 8 10 5 7 5 6 6 6 7 8 9 8 9 11 10 11 10 10 11 11 11 11 11 10 10 10
11 11 13 14 13 13 13 12 11 12 10 9 9 9 11 12 12 12 11 12 12 13 12 11 12 11 12 11 8 7 8 7 8 10 8 10 11 13 13 13 12 12 11 11 10 9 7 6 6 5 5 6 8 6 7 9 9 8 8 9 8 5 4 4 6 6 7 7 8 9 10 11 10 10 10 10 10 11 11 10 10 10 10 10 11
12 11 11 14 13 12 12 12 12 12 13 10 8 10 11 10 12 11 9 11 11 11 10 10 10 10 10 9 7 6 6 8 7 5 7 9 12 12 13 12 11 11 10 9 9 9 8 6 6 4 4 4 4 4 6 7 7 9 8 7 2 4 5 5 5 6 6 8 8 9 8 7 8 10 10 10 10 10 10 11 10 11 10 10 10
12 11 12 12 12 12 13 12 13 13 11 9 9 9 9 10 10 9 8 7 9 8 10 9 10 10 9 7 5 6 6 5 11 12 10 9 11 13 12 12 11 10 12 8 10 9 9 6 6 6 4 5 3 3 5 5 7 7 6 4 5 5 4 3 6 6 6 8 8 10 9 8 8 9 9 9 10 9 9 9 9 9 9 10 9
10 12 11 12 14 12 13 13 13 12 12 9 9 9 9 9 8 7 7 6 7 7 7 9 8 9 8 6 7 7 7 8 6 7 4 8 7 8 8 7 6 6 8 6 7 8 9 7 6 6 5 5 5 3 4 5 6 6 5 4 5 5 4 4 6 5 6 7 8 8 9 8 8 9 9 10 9 9 9 9 9 9 9 8 10
12 12 12 13 14 13 14 13 13 13 10 9 9 8 9 8 8 6 6 4 4 3 3 1 3 7 7 7 6 7 7 8 8 8 8 7 8 7 5 5 5 5 4 4 4 4 4 6 6 6 5 5 4 4 4 4 5 5 5 5 5 5 4 5 6 5 6 7 8 8 8 7 8 9 10 9 9 9 9 9 9 9 8 8 8
11 11 12 12 13 14 14 14 12 11 12 11 9 8 8 7 8 8 7 6 7 7 6 6 3 7 6 4 6 5 8 7 6 6 6 6 5 5 4 5 5 4 2 3 4 4 4 5 5 6 5 5 5 5 5 5 5 6 5 5 4 4 5 5 5 5 6 7 9 9 9 7 6 8 9 9 9 9 8 8 8 7 7 7 8
11 12 12 12 12 15 14 14 12 11 10 9 9 7 8 8 7 8 6 6 5 5 5 8 5 6 3 4 5 8 7 6 6 6 6 5 5 4 4 4 4 4 4 3 5 4 3 3 3 4 5 5 5 5 5 5 5 5 5 5 5 4 4 4 5 6 6 7 8 10 9 6 6 8 9 9 9 9 8 7 7 8 7 7 6
12 12 11 11 14 13 14 13 11 10 6 6 8 7 8 8 8 7 6 7 6 5 5 7 9 6 9 8 8 6 6 6 6 6 6 6 6 5 4 3 2 3 3 3 3 4 3 3 3 4 4 4 4 5 5 5 5 5 5 5 4 4 5 5 5 6 6 6 6 10 10 8 5 6 9 8 8 8 8 8 7 7 7 7 6
10 10 10 10 11 9 14 11 8 8 2 7 7 8 8 8 8 7 6 6 4 3 5 6 6 7 7 7 6 5 5 5 6 6 6 6 6 6 5 5 3 2 2 3 3 3 4 3 3 3 5 4 4 4 4 5 6 5 5 5 5 4 4 4 5 5 6 6 7 9 11 8 7 6 6 8 8 8 7 7 7 7 7 7 6
9 10 8 9 7 8 5 7 8 10 9 8 7 7 8 8 7 7 6 5 5 5 4 4 6 6 6 7 7 5 5 5 5 5 6 6 6 6 5 5 4 3 2 2 2 3 3 2 2 2 3 4 4 4 5 5 5 5 4 5 4 4 4 3 4 5 6 6 6 6 10 10 9 7 6 5 7 8 8 8 8 7 7 7 6
9 2 3 2 7 9 8 6 5 7 9 8 8 8 8 8 8 6 6 5 5 5 4 5 5 6 7 7 6 6 5 5 5 5 6 6 6 5 5 4 4 4 3 2 3 3 3 3 3 2 2 2 4 4 2 4 4 5 5 5 4 4 4 4 4 4 4 7 7 6 5 7 9 9 7 5 6 7 7 7 7 7 7 7 6
2 7 6 7 10 9 8 7 8 8 8 9 8 8 7 7 7 6 6 5 5 5 4 5 5 6 6 7 6 7 5 5 5 5 6 5 5 5 5 4 4 3 3 3 3 3 3 4 3 3 3 4 4 4 4 4 4 4 4 4 4 3 3 3 4 3 3 4 7 7 4 6 8 8 7 9 7 5 6 7 7 7 7 8 7
3 2 4 5 6 9 6 6 9 8 8 7 8 7 7 6 6 6 6 6 5 5 5 5 5 6 6 6 7 7 6 6 6 6 5 5 5 4 4 4 4 4 4 4 4 4 4 4 4 4 4 4 5 5 5 5 4 4 4 3 3 3 4 4 4 4 3 3 3 5 6 6 6 6 8 10 8 5 3 7 7 6 7 7 6
11 6 8 8 6 6 7 7 9 10 9 8 8 9 8 6 6 6 6 7 6 5 5 5 6 6 6 6 6 6 6 6 6 5 5 4 5 4 4 5 5 5 4 3 2 3 3 4 4 4 4 4 5 5 4 4 4 4 4 3 3 3 2 2 2 4 5 4 3 3 3 3 5 5 6 6 8 10 9 8 5 3 3 4 3
16 17 12 6 5 7 7 10 9 11 11 12 9 9 9 7 6 6 6 6 6 6 6 6 6 6 5 5 6 6 6 6 6 6 5 5 5 5 4 4 5 4 3 3 3 4 3 2 3 3 4 5 5 5 4 4 4 4 3 3 3 4 4 3 3 2 5 4 3 3 3 3 3 4 4 5 5 8 10 8 6 5 4 3 3
13 18 15 15 11 10 8 14 14 12 12 12 12 10 9 8 7 7 7 7 6 6 6 6 6 6 5 5 5 5 5 6 5 5 4 4 3 4 4 5 4 4 4 3 3 3 4 4 3 3 3 5 5 5 4 4 5 4 3 4 3 4 4 4 4 3 4 4 4 3 3 4 4 5 5 3 4 6 9 10 9 7 6 5 4
4 12 22 19 14 11 10 10 12 13 12 12 12 10 10 9 7 6 7 6 6 6 6 6 6 5 5 5 6 5 5 5 5 5 4 4 3 3 4 4 4 3 3 3 3 3 3 4 4 4 4 4 5 5 5 5 5 4 4 4 4 2 3 3 3 3 3 3 4 1 1 2 2 2 6 3 4 3 6 8 10 10 9 7 6
13 10 10 12 14 13 10 11 12 11 11 12 13 11 10 8 7 7 7 7 6 6 6 6 6 5 5 6 6 5 5 5 5 5 5 5 4 4 4 5 4 3 3 3 3 3 3 4 4 5 3 3 4 5 5 5 5 5 5 5 4 4 3 3 2 2 2 3 3 3 3 4 3 2 4 4 3 3 1 2 2 2 5 7 7
11 12 13 14 13 16 13 11 13 12 12 12 11 10 9 8 9 8 5 7 7 6 6 6 5 6 6 6 6 5 6 5 6 5 5 4 4 4 4 5 4 3 3 3 3 3 4 5 5 6 5 4 4 4 6 6 6 6 5 4 4 4 3 3 3 3 2 3 2 2 3 4 4 3 6 3 4 6 4 3 4 4 5 7 7
12 12 11 12 18 17 17 16 14 13 12 12 12 11 10 9 8 9 10 8 8 8 7 6 6 6 6 6 6 5 6 6 6 6 5 5 4 4 5 4 5 4 4 4 3 4 4 4 5 5 6 6 5 5 6 6 7 6 5 5 4 4 4 3 3 3 2 2 1 1 1 1 3 4 4 3 3 3 2 2 1 0 3 5 7
13 12 8 9 12 14 16 15 13 14 13 13 12 12 10 10 10 10 9 9 8 8 7 7 6 6 6 6 6 6 6 5 6 6 5 6 5 5 5 5 5 5 4 4 4 4 4 4 5 5 5 5 5 5 5 6 7 5 7 6 5 4 4 3 3 3 4 3 3 2 1 2 2 3 1 2 2 3 3 2 2 2 2 3 4
10 10 11 12 13 13 12 13 12 13 12 13 12 12 10 9 9 10 8 8 8 7 7 7 6 6 6 6 6 6 6 6 6 6 5 5 5 4 5 5 5 4 4 4 5 5 5 5 5 5 6 4 5 5 7 5 5 6 5 6 6 6 3 4 2 2 3 3 3 3 3 2 1 2 2 1 2 2 3 3 4 4 3 3 3
10 11 12 13 12 11 13 13 13 13 12 13 12 11 10 9 8 8 8 7 7 7 6 6 6 7 7 7 6 5 6 6 6 6 5 5 4 4 4 5 5 5 5 5 5 6 6 5 6 5 5 6 5 6 5 3 3 6 6 5 5 4 5 3 4 3 2 4 2 4 4 4 3 2 2 1 2 3 2 5 5 4 4 4 4
12 12 13 13 11 14 14 13 12 13 12 12 12 10 9 7 5 7 7 6 7 7 7 7 7 7 7 7 7 6 6 5 6 6 5 5 5 4 4 5 5 5 5 5 6 7 7 6 6 6 6 5 6 5 4 3 4 5 3 2 4 4 3 6 6 4 1 3 5 4 4 2 2 2 3 1 3 3 4 5 4 5 5 5 5
11 11 12 14 13 12 14 15 12 12 12 14 13 9 8 8 8 9 10 8 8 8 8 9 9 9 8 7 7 7 6 6 5 6 6 5 6 6 6 7 7 6 5 5 5 6 7 7 6 6 7 6 5 6 5 4 5 3 1 1 4 1 2 8 7 5 3 3 2 2 4 1 3 2 5 4 4 3 4 4 5 5 5 5 5
12 11 11 13 13 14 15 15 13 11 13 13 14 9 10 11 12 12 10 9 9 8 9 8 8 8 7 7 7 6 7 6 6 5 6 6 6 5 6 6 6 6 5 5 5 6 7 7 6 6 6 5 5 5 6 5 4 4 3 2 2 3 7 8 7 8 7 5 5 7 6 4 5 5 5 5 5 4 3 4 5 6 6 5 6
12 12 12 12 15 15 14 14 11 12 12 13 14 11 12 11 11 10 10 10 9 9 9 8 8 8 8 8 7 7 7 6 5 5 6 6 5 5 6 6 6 6 6 6 6 5 5 6 5 5 4 4 5 4 5 5 6 5 4 4 4 3 5 5 6 5 5 7 5 6 5 4 6 5 5 5 5 5 5 4 5 6 5 6 5
12 13 13 13 14 14 13 11 13 13 12 15 14 14 13 12 12 11 11 9 10 9 8 8 8 8 9 8 7 7 6 6 6 5 5 6 6 6 6 6 6 6 5 6 6 6 6 6 6 5 5 4 4 3 3 4 5 4 5 4 4 4 5 5 2 5 4 6 7 6 6 6 6 5 3 4 4 5 4 4 5 6 6 5 5
11 12 12 13 14 14 15 14 14 12 13 15 14 14 13 12 11 11 12 10 10 9 9 9 9 9 9 8 7 7 6 6 6 6 6 7 7 7 6 6 6 6 5 6 7 7 6 6 6 5 5 5 3 4 4 4 5 3 6 7 5 4 3 4 5 6 6 6 6 8 8 9 8 6 5 6 6 5 5 5 5 5 5 5 5
10 12 12 11 13 14 15 15 15 13 14 13 14 15 12 11 9 11 11 12 11 11 10 10 9 9 9 9 8 7 6 6 6 5 6 6 6 6 6 6 5 5 5 6 6 7 7 6 6 6 6 5 5 4 4 3 4 4 5 4 5 5 5 1 2 4 3 5 7 9 8 7 8 8 6 6 6 7 6 5 5 5 4 4 4
Wind_Direction
155 145 139 136 142 141 136 129 123 121 119 120 120 119 120 120 122 126 127 128 133 136 136 138 133 132 134 133 130 129 129 129 129 129 129 127 124 122 123 120 123 121 120 120 119 118 117 113 109 104 98 98 98 97 94 93 83 85 92 77 76 79 83 86 93 97 98 93 87 90 84 84 79 78 82 77 73 64 63 66 62 77 80 74 75
152 141 138 142 136 139 136 133 128 123 118 118 119 118 120 121 122 124 127 130 134 134 137 134 133 136 134 132 129 128 131 131 129 128 130 131 127 128 129 127 125 124 125 124 123 119 115 112 113 110 101 95 96 96 94 90 88 85 78 72 73 75 81 87 88 94 97 99 97 88 85 77 73 78 79 77 73 70 71 72 74 73 72 66 74
141 134 138 139 137 138 136 135 131 124 120 118 118 118 121 120 120 125 128 130 133 134 135 135 137 137 134 132 130 133 136 136 134 135 137 135 131 130 132 132 128 127 127 127 125 119 115 117 115 113 108 100 96 94 95 92 89 82 82 78 71 73 81 88 92 94 100 98 96 94 88 83 77 77 77 76 74 70 69 69 68 73 71 70 73
139 138 136 137 138 137 137 136 133 130 125 122 120 121 122 122 125 128 129 132 133 134 135 135 135 134 134 134 136 140 140 138 137 137 135 133 131 132 131 130 133 131 131 127 124 122 122 119 119 116 115 110 104 100 99 100 94 86 84 81 75 72 74 85 94 96 102 111 118 113 106 96 88 79 79 78 79 76 72 72 72 71 78 77 74
134 141 135 143 143 138 138 135 134 131 126 123 122 123 123 125 126 127 129 131 132 135 134 134 131 131 135 137 140 141 141 139 136 138 140 135 134 135 137 137 135 135 131 127 124 124 125 124 122 118 116 114 111 107 101 101 101 98 90 86 79 74 73 72 76 83 78 89 169 121 98 91 87 79 77 82 80 81 80 83 89 85 77 73 70
137 136 140 145 146 141 136 136 135 130 128 126 125 125 127 128 128 128 128 131 134 135 139 139 136 135 138 140 142 142 143 141 143 144 142 139 137 140 137 135 138 135 132 130 128 129 130 128 125 121 121 118 112 104 103 102 99 96 94 88 82 77 75 76 69 78 133 162 173 108 93 87 84 89 88 87 88 86 85 82 82 78 79 82 76
136 138 141 144 145 141 137 137 137 134 132 131 129 131 131 131 131 130 132 134 137 139 139 139 139 140 142 144 142 143 143 145 144 143 142 134 138 138 135 138 138 137 136 135 137 136 134 134 130 127 125 124 118 103 104 108 108 100 92 91 85 81 83 77 55 339 301 227 94 103 102 101 94 78 71 76 82 75 72 65 65 70 69 69 68
142 140 145 144 143 139 138 138 138 138 136 135 134 136 136 136 134 134 135 136 138 140 141 143 143 143 146 147 146 147 148 147 148 146 140 136 139 144 138 138 142 141 136 138 135 132 133 132 130 129 129 129 124 118 110 109 112 111 105 98 93 89 87 84 64 354 302 92 88 86 97 98 88 93 79 73 76 76 77 72 65 64 63 60 67
143 145 146 141 140 140 140 139 140 140 139 138 137 138 141 137 136 135 137 138 138 140 142 145 147 148 154 153 152 151 151 150 149 144 140 143 152 137 138 146 145 139 140 136 131 132 131 130 129 127 129 129 127 123 120 117 116 116 114 108 98 92 85 75 108 213 126 92 89 96 97 107 116 103 86 80 62 52 62 94 94 74 60 56 61
147 143 144 140 144 142 142 141 141 140 140 139 139 140 140 139 138 138 138 138 138 141 145 149 152 155 157 151 144 151 150 150 144 128 114 113 124 134 142 138 137 139 136 131 131 130 130 126 127 128 125 125 126 125 125 129 127 121 119 113 105 96 88 114 225 244 92 106 85 64 29 45 79 86 84 84 79 66 66 59 57 57 68 72 68
144 142 143 142 144 142 142 143 141 141 140 139 140 142 141 140 140 139 138 139 139 143 147 149 151 151 143 131 139 153 150 148 139 124 119 116 118 129 131 135 136 132 135 136 132 132 128 128 125 121 119 114 118 124 131 134 137 132 123 114 111 117 181 188 229 85 86 89 93 91 75 73 82 96 105 96 87 75 71 75 77 81 77 73 74
146 143 141 144 135 146 145 143 143 142 141 141 142 142 142 141 139 140 142 142 139 139 139 138 143 150 140 145 153 157 151 148 140 132 129 129 133 136 135 130 129 130 131 129 132 129 126 116 110 114 114 117 125 128 133 139 141 136 126 122 117 145 215 235 238 102 97 96 103 105 100 95 95 88 87 88 94 95 83 78 81 82 79 74 72
146 147 141 138 149 143 145 145 145 145 146 145 143 141 140 140 140 141 140 139 140 140 142 142 147 144 146 153 142 153 149 147 144 137 135 136 141 133 133 129 127 128 132 131 128 124 114 116 114 109 109 116 120 126 129 137 140 135 129 124 132 152 239 268 109 96 96 94 87 87 86 81 87 94 98 94 91 92 87 89 87 85 78 76 75
152 146 142 146 148 146 145 145 144 146 147 145 143 140 139 138 138 139 138 139 137 136 138 142 145 146 144 140 161 160 147 147 150 138 136 133 133 132 132 132 132 130 131 131 127 127 118 114 110 108 114 122 123 123 123 132 136 136 129 127 132 172 236 238 93 96 95 85 76 81 83 87 90 95 92 93 93 87 83 85 84 78 75 78 80
152 145 148 147 146 152 144 143 143 145 143 140 138 136 136 136 137 139 138 134 131 131 133 136 137 142 141 147 152 138 142 148 142 138 134 132 133 136 135 131 132 130 131 130 130 126 119 110 102 97 97 107 113 118 124 127 134 128 129 131 144 208 243 114 111 96 96 101 107 99 94 93 97 88 86 85 87 86 89 84 85 85 83 77 75
151 148 150 147 150 148 152 147 143 141 139 138 137 137 137 137 140 142 138 130 133 133 134 143 136 127 131 139 136 138 144 145 140 137 133 133 133 131 132 131 130 131 132 128 126 122 118 111 102 95 99 111 123 127 127 133 130 128 124 129 160 249 277 317 96 94 90 89 89 84 86 85 80 91 95 96 94 93 90 90 85 79 76 78 80
153 153 148 150 149 153 152 156 144 140 140 140 139 138 138 141 143 141 135 136 139 143 142 137 134 134 132 134 128 131 131 136 136 135 135 133 134 134 131 128 128 126 123 123 122 119 112 107 102 97 102 108 123 128 133 132 127 118 117 126 101 331 334 313 99 96 77 81 91 94 93 93 81 85 95 94 94 93 90 86 84 88 87 86 84
157 156 153 153 155 155 155 153 146 153 146 143 140 139 140 141 141 137 134 137 140 138 137 135 134 137 134 128 124 123 128 129 128 130 132 133 125 126 127 126 130 127 125 121 116 117 116 106 96 97 105 111 120 127 126 125 116 113 117 102 90 3 302 302 88 90 92 80 76 82 87 87 107 102 94 93 91 86 94 104 98 90 93 91 85
158 160 159 160 161 156 156 153 155 153 153 152 150 141 137 141 136 132 132 134 137 137 134 137 138 139 132 128 127 130 129 126 126 130 132 133 127 130 127 125 128 129 129 124 121 124 115 107 102 93 97 109 115 118 128 119 119 124 114 115 102 240 262 258 89 96 98 86 86 88 91 82 94 96 91 87 94 99 90 85 94 91 84 83 82
160 164 163 164 163 162 156 157 154 153 157 153 143 149 139 136 133 132 131 136 139 137 134 139 143 142 135 133 135 138 135 133 131 131 130 128 135 131 124 122 123 128 132 133 128 120 114 109 98 90 89 103 117 115 128 126 123 126 132 120 197 219 215 69 71 75 72 71 82 93 94 112 102 93 95 94 91 92 93 92 87 91 95 91 87
165 167 169 167 163 164 156 154 152 152 155 149 144 149 147 144 141 133 137 139 142 141 141 143 144 142 142 134 141 150 140 133 142 132 132 131 123 127 125 124 122 124 126 124 127 127 114 109 101 95 101 102 105 114 125 130 131 133 130 187 206 220 72 97 96 97 94 104 99 95 117 102 95 96 93 92 90 90 91 95 92 94 91 87 83
171 169 171 169 166 158 154 151 149 161 149 149 151 151 149 161 150 148 150 148 143 146 152 153 156 146 138 147 150 138 145 153 135 132 130 132 131 123 123 122 120 119 117 121 122 125 124 116 111 102 108 125 144 140 147 136 134 137 164 199 221 85 94 85 89 90 93 88 91 87 83 92 105 104 97 97 99 103 100 90 88 87 85 83 83
175 172 171 171 167 157 155 151 157 159 156 153 150 147 154 155 151 152 149 151 148 161 158 160 159 152 159 153 138 148 145 132 133 150 131 131 123 123 119 116 116 115 115 117 120 118 118 117 112 111 115 195 211 146 159 158 151 153 186 216 137 92 90 94 95 79 75 81 86 101 105 105 100 101 100 102 105 95 94 95 93 93 93 93 88
171 176 169 169 167 160 157 156 160 161 158 157 153 154 154 157 152 148 146 148 161 170 160 190 163 158 175 134 141 141 136 123 117 126 133 126 125 119 116 116 118 122 128 126 123 118 123 130 131 144 185 197 153 189 151 165 152 170 181 169 113 119 127 111 87 92 97 96 94 120 120 116 106 105 109 103 103 103 101 101 97 96 96 96 100
176 173 172 171 166 159 162 160 161 162 163 154 158 157 155 154 139 134 149 158 171 181 167 186 161 160 132 133 142 147 142 128 135 129 179 144 137 135 146 149 142 141 198 153 157 150 170 150 153 184 178 193 166 171 170 162 162 171 167 140 129 128 110 95 91 98 96 96 107 128 123 123 122 118 114 110 110 112 108 100 103 104 95 94 95
176 179 177 171 171 162 163 164 164 165 154 160 161 145 153 146 134 135 157 167 154 232 148 278 175 115 123 150 158 144 146 139 152 189 157 139 148 150 147 131 138 140 180 152 134 152 146 149 162 177 179 192 178 173 170 181 171 173 163 141 138 139 126 111 109 112 106 111 120 116 118 121 128 126 120 118 115 112 112 109 109 105 104 101 102
179 182 176 175 173 168 164 161 161 162 163 168 149 151 147 140 138 153 165 166 187 188 173 123 108 116 146 163 154 161 144 146 148 135 131 138 131 132 129 137 135 135 124 129 133 154 169 159 166 175 177 178 180 177 179 178 176 168 155 151 144 134 131 123 119 118 115 111 113 122 123 133 127 124 122 121 119 117 114 115 110 113 115 110 105
188 181 177 173 174 170 166 159 159 158 159 148 149 145 135 140 144 146 173 151 163 169 164 150 157 125 176 142 221 153 146 144 139 135 127 130 125 119 130 137 133 133 135 154 156 153 138 134 151 159 175 171 173 187 181 163 170 165 152 152 146 128 124 106 106 111 116 123 127 128 129 112 121 120 121 120 121 121 123 117 119 115 109 108 95
191 181 177 170 171 169 158 158 144 144 117 149 143 143 142 144 144 152 154 155 167 168 156 141 154 162 179 188 165 141 145 145 141 139 139 129 133 139 141 128 144 144 162 157 147 136 128 152 152 156 162 172 168 185 178 161 168 166 158 149 137 131 124 134 132 128 122 119 117 121 125 125 113 113 127 122 125 127 122 124 122 116 112 111 102
195 179 175 175 166 168 168 143 121 107 127 181 146 150 148 146 150 153 147 166 153 143 149 154 143 159 152 149 141 143 146 144 138 143 139 139 143 140 147 147 162 155 173 146 135 144 140 145 154 163 154 174 171 169 183 161 174 164 162 147 140 144 132 134 132 127 120 122 120 120 126 124 103 116 124 132 127 119 117 114 111 113 113 109 113
201 181 180 176 168 117 41 81 129 150 170 151 154 152 150 151 151 152 154 158 149 151 158 149 148 151 145 144 148 151 147 144 148 148 141 148 147 153 152 156 164 155 154 138 151 143 145 136 146 150 156 164 157 154 197 165 159 160 159 153 146 146 143 138 131 126 132 111 93 116 129 128 125 118 110 110 126 124 126 127 128 125 119 118 116
329 291 136 317 86 84 105 133 142 146 156 152 158 155 155 150 149 155 155 150 155 154 153 157 150 144 148 151 152 154 155 144 154 153 150 154 153 157 151 162 153 162 160 145 164 167 154 138 139 110 93 151 152 155 145 156 157 148 168 154 152 155 150 140 127 137 145 125 136 117 134 133 140 133 125 113 106 120 133 131 126 122 114 115 115
71 337 5 82 81 126 146 156 149 154 158 161 157 155 150 155 156 152 151 148 159 151 156 161 151 143 154 160 155 156 153 154 160 163 157 158 146 154 152 144 149 146 139 149 155 175 154 158 144 143 142 139 147 140 152 139 155 148 143 152 158 156 108 147 139 135 122 145 143 153 145 140 137 140 132 135 142 135 122 122 125 119 121 120 119
105 32 41 76 148 144 145 156 152 147 141 144 155 155 150 156 157 158 153 162 164 164 164 163 154 153 158 161 161 159 166 159 162 157 161 147 151 154 149 150 126 143 148 167 170 181 168 160 157 154 144 149 144 143 152 152 133 138 136 138 153 126 165 164 148 127 134 138 113 129 182 164 153 143 132 145 153 141 101 124 128 129 128 118 117
141 132 148 159 157 149 158 164 146 148 142 150 166 162 143 166 162 162 162 166 166 166 165 163 165 162 162 161 167 162 170 163 158 152 159 157 157 156 163 152 139 155 169 174 179 161 159 166 166 155 149 144 141 151 143 120 122 110 110 129 120 146 137 99 120 155 145 119 153 132 139 136 138 153 141 131 143 99 83 69 66 92 108 85 59
152 135 121 124 153 151 158 148 160 158 163 160 164 162 150 165 164 150 156 168 169 164 169 171 168 162 164 159 167 167 171 163 158 158 165 174 170 161 163 131 148 165 158 160 191 166 146 156 145 156 153 139 129 123 122 118 116 114 118 125 140 168 161 129 149 181 135 161 147 137 145 132 145 135 105 119 137 118 108 105 102 89 94 103 86
140 135 139 156 159 174 182 156 166 171 166 164 165 170 158 162 153 155 162 170 172 171 172 170 166 167 165 160 162 167 173 161 162 162 169 186 162 154 130 143 162 162 159 172 185 157 147 152 150 150 164 148 134 125 124 123 118 115 125 135 146 163 145 205 173 146 131 160 145 145 150 133 119 124 152 91 116 130 113 115 109 94 77 59 62
199 163 151 162 160 173 178 170 171 175 170 165 168 171 166 152 152 157 161 168 180 179 170 170 165 166 168 155 163 165 173 163 168 167 178 186 153 149 134 150 173 170 169 184 154 150 145 156 151 147 151 154 142 143 136 125 120 126 128 135 138 160 130 128 124 142 167 158 144 145 61 119 129 107 80 107 110 110 138 128 121 100 77 59 54
160 194 163 153 152 167 175 175 175 173 172 164 166 170 158 150 145 155 161 169 183 179 169 174 171 166 170 155 165 165 170 174 177 176 179 181 156 149 153 164 182 174 171 172 147 141 145 150 146 143 147 156 131 131 131 122 120 126 129 126 134 128 119 107 121 160 143 137 134 153 169 141 84 39 67 106 141 164 184 128 115 156 108 90 83
167 188 176 159 164 169 170 173 175 169 169 168 166 173 164 159 159 158 169 179 183 170 175 175 170 173 165 159 161 172 175 182 182 178 177 179 162 158 161 177 179 184 175 183 163 153 160 160 156 150 142 132 130 133 138 138 123 115 110 113 113 114 117 136 166 156 150 147 161 193 196 140 138 177 151 154 215 191 176 163 186 166 126 109 97
179 193 211 184 170 174 172 174 173 169 171 173 172 173 170 159 165 177 179 177 176 167 175 174 179 167 164 162 167 184 182 184 183 179 177 168 167 168 166 176 188 188 195 179 178 157 167 179 149 153 153 148 140 150 151 149 132 119 117 121 111 96 102 113 137 152 144 89 109 125 343 205 160 165 129 162 139 86 90 106 141 304 116 133 127
190 197 198 196 179 173 174 170 170 170 176 175 173 177 179 175 172 181 172 188 167 174 170 169 174 153 164 169 175 190 184 181 184 180 183 176 173 169 167 169 188 181 195 179 178 153 169 180 165 151 158 152 143 162 153 165 146 155 148 139 121 101 92 117 133 140 142 158 168 135 213 243 165 97 95 157 125 109 109 120 74 49 44 36 82
173 188 191 188 183 179 174 171 171 172 175 175 175 178 174 167 180 177 185 169 168 169 170 162 160 157 164 173 183 188 183 186 189 179 182 184 182 178 163 164 181 160 179 172 170 172 179 181 179 169 153 158 152 163 174 227 154 170 157 160 153 144 135 130 102 125 157 155 156 158 190 140 138 124 134 354 115 98 69 68 62 41 47 55 62
175 178 180 181 182 180 174 172 173 170 171 175 180 174 165 163 179 171 176 173 159 154 150 149 156 162 168 179 178 181 182 189 183 175 177 169 173 167 155 169 172 173 189 182 169 179 178 182 183 173 166 158 172 165 174 244 179 164 175 218 147 175 152 164 141 114 172 173 182 187 190 155 149 168 106 223 95 77 66 61 60 61 53 55 76
184 182 177 179 181 185 180 172 169 171 173 174 180 165 153 150 165 157 159 150 147 156 164 164 169 170 171 175 172 174 177 184 175 178 167 161 159 163 167 168 170 178 187 180 181 175 176 184 181 173 179 171 166 166 179 242 214 96 269 163 161 194 194 148 155 109 304 168 174 194 164 153 165 94 163 94 66 82 77 79 65 66 77 74 78
187 184 182 182 184 182 182 169 169 174 174 176 173 163 147 165 175 164 169 167 165 171 175 174 169 169 179 166 162 168 175 175 178 179 163 164 167 168 170 172 173 172 180 177 178 172 172 180 178 181 185 193 177 174 178 202 227 189 36 310 335 39 213 157 179 142 161 93 116 78 82 207 137 206 70 99 123 121 117 112 103 99 81 82 87
187 179 178 180 182 181 180 171 173 173 175 173 169 156 170 177 176 174 174 173 174 176 173 177 166 167 160 164 156 167 172 172 174 174 163 162 167 171 171 176 166 166 163 172 176 184 183 180 167 192 195 180 191 186 181 179 187 198 214 258 312 185 235 169 188 134 154 126 75 48 65 100 100 121 136 127 137 133 103 100 104 97 96 87 85
175 179 177 176 180 174 171 172 173 175 173 175 172 166 171 174 177 177 176 177 181 169 170 167 165 158 160 161 159 164 171 170 168 169 163 158 163 170 172 171 170 165 165 175 175 178 176 167 165 185 196 189 193 207 183 186 203 172 200 208 207 236 185 166 260 181 163 152 122 87 74 89 97 96 116 135 130 121 95 106 120 116 111 105 99
171 181 179 176 174 168 161 162 174 176 175 175 175 174 176 177 180 181 177 179 175 167 166 164 162 160 161 159 164 160 161 165 169 163 169 158 159 168 172 170 171 165 175 173 171 168 169 159 168 182 184 193 199 211 205 194 216 187 178 215 212 185 160 202 158 278 145 157 147 143 120 109 113 108 108 120 111 112 100 94 90 102 104 105 101
168 173 174 176 174 169 166 171 175 177 175 175 175 173 176 181 182 181 178 176 173 166 166 162 164 162 159 159 159 160 159 166 168 173 169 158 171 167 172 170 167 167 184 167 163 164 164 165 171 176 177 190 194 196 206 197 218 209 198 197 200 192 203 171 185 195 178 184 153 158 152 149 137 132 145 128 133 131 131 123 133 116 106 104 106
174 172 166 172 177 178 176 178 178 177 172 170 172 172 177 178 181 177 179 172 168 167 164 163 161 164 161 161 162 160 164 160 161 161 173 161 159 166 167 165 164 165 182 167 176 171 164 161 163 169 177 192 195 190 200 216 207 213 215 217 223 208 206 137 140 234 174 179 140 149 161 157 134 139 147 132 139 146 134 131 121 118 115 107 106